Regional Weather Roundup
Issued by NWS

Home | Current Version | Previous Version | Text Only | Print | Product List | Glossary On
Versions: 1 2 3 4 5 6 7 8 9 10 11 12 13 14 15 16 17 18 19 20 21 22 23 24 25 26 27 28 29 30 31 32 33 34 35 36 37 38 39 40 41 42 43 44 45 46 47 48 49 50
532
ASUS44 KFWD 292010
RWRTX
NORTH TEXAS HOURLY WEATHER ROUNDUP
NATIONAL WEATHER SERVICE FORT WORTH TX
300 PM CDT SUN MAY 29 2016

NOTE: "FAIR" INDICATES FEW OR NO CLOUDS BELOW 12,000 FEET WITH NO
SIGNIFICANT WEATHER AND/OR OBSTRUCTIONS TO VISIBILITY.

TXZ118-119-292100-
DALLAS/FORT WORTH METROPLEX

CITY           SKY/WX    TMP DP  RH WIND       PRES   REMARKS
DFW AIRPORT    CLOUDY    87  67  51 SE9       30.06S HX  90
DALLAS LOVE    CLOUDY    86  69  56 SE9       30.06S HX  90
FTW MEACHAM    MOSUNNY   90  64  42 SE9       30.05F HX  91
DAL-EXECUTIVE  CLOUDY    87  70  56 SE8G16    30.06S HX  92
FTW-ALLIANCE   MOSUNNY   90  66  45 VRB7      30.05F HX  92
FTW-NAS-JRB    MOSUNNY   89  68  49 S9        30.05F HX  93
FTW-SPINKS     MOSUNNY   88  70  55 E3        30.07F HX  92
ARLINGTON      MOSUNNY   91  68  46 SE13      30.06S HX  95
GRAND PRAIRIE  SUNNY     86  66  51 E8        30.07F
ADDISON        PTSUNNY   84  68  58 E8        30.08R
MESQUITE       SUNNY     84  70  61 SE7       30.07S
LANCASTER      MOSUNNY   83  70  64 SE7       30.07F
$$

TXZ091>094-102>105-117-120-121-131>134-292100-
NORTH CENTRAL TEXAS

CITY           SKY/WX    TMP DP  RH WIND       PRES   REMARKS
SHRMAN/DENISON CLOUDY    79  56  45 E12       30.08F
GAINESVILLE    SUNNY     85  62  46 E5        30.09F
BOWIE          SUNNY     85  62  45 S9        30.08F
BRIDGEPORT     SUNNY     87  64  46 S7        30.08F
DECATUR        SUNNY     86  57  37 SE8       30.08F
DENTON         CLOUDY    87  64  46 E8        30.06F
MCKINNEY       PTSUNNY   80  67  64 E6        30.08S
GREENVILLE     CLOUDY    82  66  57 NE3       30.08R
ROCKWALL       CLOUDY    82  71  68 SE6       30.08R
TERRELL        CLOUDY    84  70  62 SE8       30.07S
WAXAHACHIE     MOSUNNY   87  71  58 SE5       30.07F HX  93
CLEBURNE       MOSUNNY   88  70  55 S9        30.08S HX  92
GRANBURY       MOSUNNY   87  67  50 SE6       30.07F HX  90
$$

TXZ083>090-098>101-113>116-127>130-139>142-154-155-292100-
WESTERN NORTH TEXAS

CITY           SKY/WX    TMP DP  RH WIND       PRES   REMARKS
WICHITA FALLS  SUNNY     88  61  40 NE9       30.04F
WF-KICKAPOO    SUNNY     89  59  37 E10       30.06F
VERNON         SUNNY     87  52  29 E3        30.06F
ABILENE        SUNNY     86  64  47 S13       30.08F
ABILENE-DYESS  SUNNY     87  62  43 S10       30.06F
BRECKENRIDGE   SUNNY     87  62  43 CALM      30.07S
GRAHAM         SUNNY     85  66  52 S3        30.06F
MINERAL WELLS  SUNNY     85  65  51 S6        30.06F
STEPHENVILLE   CLOUDY    85  64  50 S3        30.11S
COMANCHE       SUNNY     87  63  45 CALM      30.08S
BROWNWOOD      LGT RAIN  86  64  48 SW6       30.07S
COLEMAN        SUNNY     89  58  35 SW10      30.08S
$$

TXZ143>147-156>162-174-175-292100-
CENTRAL TEXAS

CITY           SKY/WX    TMP DP  RH WIND       PRES   REMARKS
WACO           PTSUNNY   89  68  49 S12       30.04F HX  93
WACO-TSTC      SUNNY     90  68  48 S9        30.05F HX  93
WACO-MCGREGOR  CLOUDY    88  70  55 SE14      30.05F HX  93
HILLSBORO      MOSUNNY   87  67  51 SE9       30.05F HX  90
CORSICANA      CLOUDY    89  70  53 S9        30.07S HX  94
MEXIA          PTSUNNY   87  69  54 S16       30.05F HX  91
HEARNE         SUNNY     87  71  58 SE8       30.06S HX  92
CAMERON        MOSUNNY   88  71  56 SE9       30.06R HX  93
TEMPLE         CLOUDY    85  68  56 SE13      30.06S
KILLEEN        PTSUNNY   86  68  55 SE9       30.05F HX  90
KILLEEN-SKYLRK CLOUDY    87  67  51 SE15      30.06F HX  90
FORT HOOD      CLOUDY    86  66  51 SE12G17   30.04F
GATESVILLE     MOSUNNY   88  66  48 S7        30.08S HX  90
HAMILTON       SUNNY     88  61  40 S7        30.09S
LAMPASAS       SUNNY     85  70  60 SE5       30.06F
$$

TXZ095>097-106>112-122>126-135>138-148>153-164>167-292100-
EAST TEXAS

CITY           SKY/WX    TMP DP  RH WIND       PRES   REMARKS
PARIS          CLOUDY    86  64  48 E7        30.08F
SULPHUR SPRNGS CLOUDY    85  69  57 E7        30.09S
MOUNT PLEASANT CLOUDY    88  69  52 E6        30.08F HX  92
GILMER         CLOUDY    84  71  65 E7        30.07F HX  90
MINEOLA        CLOUDY    88  72  58 SE9       30.07F HX  94
TYLER          CLOUDY    87  68  52 SE8       30.07F HX  90
LONGVIEW       CLOUDY    85  71  63 E8        30.06F HX  90
MARSHALL       MOSUNNY   87  70  56 E5        30.09F HX  92
ATHENS         MOSUNNY   82  72  69 S7        30.06S
PALESTINE      MOSUNNY   88  74  62 S8        30.08S HX  96
JACKSONVILLE   CLOUDY    85  72  64 E6        30.11S HX  91
HENDERSON      CLOUDY    86  70  59 MISG      30.09S HX  90
CENTER         FAIR      88  67  50 E6        30.07F HX  90
NACOGDOCHES    MOSUNNY   84  72  65 SE6       30.08S
LUFKIN         MOSUNNY   86  71  60 E7        30.06F HX  91
$$

SUPPLEMENTAL OBSERVATIONS (CENTRAL)

CITY           SKY/WX    TMP DP  RH WIND       PRES   REMARKS
CADDO GRASSLND   N/A     82  66  57 E5          N/A
PAT MAYSE LAKE   N/A     81  75  83 S5          N/A
GREENVILLE       N/A     82  68  61 E9          N/A
MCGREGOR         N/A     88  68  51 S8          N/A  HX  91
TEMPLE           N/A     86  66  51 S12         N/A
$$

SUPPLEMENTAL OBSERVATIONS (WEST)

CITY           SKY/WX    TMP DP  RH WIND       PRES   REMARKS
MILLERS CREEK    N/A     90  63  40 E7          N/A  HX  90
POSSUM KINGDOM   N/A     88  66  48 SE3         N/A  HX  90
LBJ GRASSLAND    N/A     88  63  42 S5G13       N/A
GRANBURY         N/A     88  66  48 S7          N/A  HX  90
HAMBY            N/A     90  64  43 SW8G30      N/A  HX  91
IVIE RESERVOIR   N/A     90  61  37 S9G17       N/A
COLORADO BEND    N/A     90  59  35 S6          N/A
$$

SUPPLEMENTAL OBSERVATIONS (EAST)

CITY           SKY/WX    TMP DP  RH WIND       PRES   REMARKS
CLARKSVILLE      N/A     88  68  51 E3          N/A  HX  91
TEXARKANA        N/A     91  72  52 SW1         N/A  HX  98
LINDEN           N/A     91  70  49 SE3         N/A  HX  97
GILMER           N/A     88  72  58 SE7         N/A  HX  94
HENDERSON        N/A     88  70  55 E8          N/A  HX  92
LUFKIN           N/A     88  72  58 MISG        N/A  HX  94
N SABINE NF      N/A     86  70  58 MISG        N/A  HX  90
S SABINE NF      N/A     88  64  45 N3          N/A
$$

SUPPLEMENTAL OBSERVATIONS ARE A COLLECTION OF AUTOMATED INSTRUMENTS
THAT ARE MAINTAINED BY A VARIETY OF FEDERAL AND STATE AGENCIES.
CERTAIN ELEMENTS...SUCH AS HUMIDITY VALUES AND SUSTAINED WIND
SPEEDS...MAY BE APPROXIMATED.





USA.gov is the U.S. government's official web portal to all federal, state and local government web resources and services.